TimeCEST,TemperatureF,Dew PointF,Humidity,Sea Level PressureIn,VisibilityMPH,Wind Direction,Wind SpeedMPH,Gust SpeedMPH,PrecipitationIn,Events,Conditions,WindDirDegrees,DateUTC
12:00 AM,46.4,41.0,81,29.86,-9999.0,ESE,4.6,-,N/A,,Clear,110,2012-09-23 22:00:00
12:30 AM,46.4,41.0,81,29.86,-9999.0,ESE,4.6,-,N/A,,Clear,110,2012-09-23 22:30:00
1:00 AM,44.6,41.0,87,29.83,-9999.0,ESE,4.6,-,N/A,,Clear,110,2012-09-23 23:00:00
1:30 AM,46.4,42.8,87,29.86,-9999.0,Variable,1.2,-,N/A,,Clear,0,2012-09-23 23:30:00
2:00 AM,46,44,89,29.86,31,East,6.7,,,,Partly Cloudy,90,2012-09-24 00:00:00
2:01 AM,46.4,42.8,87,29.83,-9999.0,East,5.8,-,N/A,,Clear,90,2012-09-24 00:01:00
2:30 AM,46.4,42.8,87,29.83,-9999.0,East,4.6,-,N/A,,Clear,90,2012-09-24 00:30:00
3:00 AM,46.4,42.8,87,29.80,-9999.0,East,4.6,-,N/A,,Clear,100,2012-09-24 01:00:00
3:30 AM,44.6,42.8,93,29.80,-9999.0,ESE,2.3,-,N/A,,Clear,120,2012-09-24 01:30:00
4:00 AM,44.6,42.8,93,29.77,-9999.0,ESE,2.3,-,N/A,,Clear,110,2012-09-24 02:00:00
4:30 AM,44.6,41.0,87,29.77,-9999.0,ENE,3.5,-,N/A,,Clear,70,2012-09-24 02:30:00
5:00 AM,44.6,41.0,87,29.77,-9999.0,East,4.6,-,N/A,,Clear,90,2012-09-24 03:00:00
5:30 AM,42.8,41.0,93,29.74,-9999.0,East,3.5,-,N/A,,Clear,90,2012-09-24 03:30:00
6:00 AM,42.8,39.2,87,29.74,-9999.0,East,3.5,-,N/A,,Clear,90,2012-09-24 04:00:00
6:30 AM,42.8,41.0,93,29.74,-9999.0,NNE,3.5,-,N/A,,Clear,20,2012-09-24 04:30:00
7:00 AM,42.8,41.0,93,29.74,-9999.0,Variable,1.2,-,N/A,,Clear,0,2012-09-24 05:00:00
7:30 AM,44.6,41.0,87,29.71,-9999.0,East,4.6,-,N/A,,Clear,100,2012-09-24 05:30:00
8:00 AM,47,43,81,29.74,12,SE,6.7,,,,Scattered Clouds,130,2012-09-24 06:00:00
8:00 AM,46.4,42.8,87,29.71,-9999.0,SSE,3.5,-,N/A,,Clear,150,2012-09-24 06:00:00
8:30 AM,46.4,42.8,87,29.71,-9999.0,SE,3.5,-,N/A,,Clear,130,2012-09-24 06:30:00
9:00 AM,48.2,42.8,82,29.68,-9999.0,East,3.5,-,N/A,,Clear,100,2012-09-24 07:00:00
9:30 AM,51.8,42.8,71,29.68,-9999.0,ESE,4.6,-,N/A,,Clear,120,2012-09-24 07:30:00
10:00 AM,51.8,44.6,76,29.68,-9999.0,ESE,4.6,-,N/A,,Clear,120,2012-09-24 08:00:00
10:30 AM,51.8,44.6,76,29.68,-9999.0,ESE,5.8,-,N/A,,Clear,120,2012-09-24 08:30:00
11:00 AM,53.6,44.6,72,29.65,-9999.0,ESE,4.6,-,N/A,,Clear,110,2012-09-24 09:00:00
11:30 AM,55.4,46.4,72,29.65,-9999.0,ESE,5.8,-,N/A,,Clear,120,2012-09-24 09:30:00
12:00 PM,55.4,46.4,72,29.65,-9999.0,ESE,8.1,-,N/A,,Clear,110,2012-09-24 10:00:00
12:30 PM,57.2,48.2,72,29.65,-9999.0,SE,6.9,-,N/A,,Clear,140,2012-09-24 10:30:00
1:00 PM,60.8,50.0,68,29.62,-9999.0,SE,4.6,-,N/A,,Clear,130,2012-09-24 11:00:00
1:30 PM,60.8,50.0,68,29.62,-9999.0,East,4.6,-,N/A,,Clear,90,2012-09-24 11:30:00
2:00 PM,62,52,62,29.60,16,East,6.7,,,,Scattered Clouds,90,2012-09-24 12:00:00
2:00 PM,62.6,51.8,68,29.62,-9999.0,East,5.8,-,N/A,,Clear,100,2012-09-24 12:00:00
2:30 PM,62.6,51.8,68,29.59,-9999.0,East,5.8,-,N/A,,Clear,90,2012-09-24 12:30:00
3:00 PM,62.6,51.8,68,29.59,-9999.0,East,4.6,-,N/A,,Clear,100,2012-09-24 13:00:00
3:30 PM,62.6,53.6,72,29.56,-9999.0,East,8.1,-,N/A,,Clear,100,2012-09-24 13:30:00
4:00 PM,64.4,55.4,73,29.59,-9999.0,WNW,4.6,-,N/A,,Clear,290,2012-09-24 14:00:00
4:30 PM,62.6,53.6,72,29.59,-9999.0,West,5.8,-,N/A,,Clear,270,2012-09-24 14:30:00
5:00 PM,64.4,53.6,68,29.59,-9999.0,Variable,2.3,-,N/A,,Clear,0,2012-09-24 15:00:00
5:30 PM,62.6,53.6,72,29.59,6.2,SE,3.5,-,N/A,Rain,Light Rain,140,2012-09-24 15:30:00
6:00 PM,62.6,55.4,77,29.59,-9999.0,SSW,3.5,-,N/A,,Clear,210,2012-09-24 16:00:00
6:30 PM,60.8,55.4,82,29.56,-9999.0,Variable,2.3,-,N/A,,Clear,0,2012-09-24 16:30:00
6:46 PM,60.8,55.4,82,29.59,6.2,Variable,2.3,-,N/A,Rain,Light Rain,0,2012-09-24 16:46:00
7:00 PM,60.8,55.4,82,29.59,6.2,South,5.8,-,N/A,Rain,Light Rain,190,2012-09-24 17:00:00
7:30 PM,59.0,55.4,88,29.59,-9999.0,South,6.9,-,N/A,,Clear,190,2012-09-24 17:30:00
7:40 PM,59.0,55.4,88,29.59,6.2,South,6.9,-,N/A,Rain,Light Rain,180,2012-09-24 17:40:00
8:00 PM,59,56,86,29.59,9,South,6.7,,,Rain,Light Rain,190,2012-09-24 18:00:00
8:00 PM,59.0,57.2,94,29.59,6.2,South,6.9,-,N/A,Rain,Light Rain,180,2012-09-24 18:00:00
8:09 PM,59.0,55.4,88,29.59,-9999.0,South,9.2,-,N/A,,Clear,180,2012-09-24 18:09:00
8:22 PM,59.0,55.4,88,29.59,6.2,South,8.1,-,N/A,Rain,Light Rain,190,2012-09-24 18:22:00
8:30 PM,59.0,55.4,88,29.62,6.2,SSW,8.1,-,N/A,Rain,Light Rain,200,2012-09-24 18:30:00
8:40 PM,59.0,55.4,88,29.62,-9999.0,South,8.1,-,N/A,,Clear,190,2012-09-24 18:40:00
9:00 PM,59.0,55.4,88,29.59,-9999.0,South,9.2,-,N/A,,Clear,190,2012-09-24 19:00:00
9:30 PM,59.0,55.4,88,29.62,-9999.0,South,8.1,-,N/A,,Clear,190,2012-09-24 19:30:00
10:00 PM,59.0,55.4,88,29.62,-9999.0,South,8.1,-,N/A,,Clear,190,2012-09-24 20:00:00
10:30 PM,59.0,55.4,88,29.62,-9999.0,WSW,6.9,-,N/A,,Clear,240,2012-09-24 20:30:00
11:00 PM,60.8,55.4,82,29.62,-9999.0,WSW,11.5,-,N/A,,Clear,250,2012-09-24 21:00:00
11:30 PM,59.0,53.6,82,29.65,-9999.0,West,15.0,-,N/A,,Clear,260,2012-09-24 21:30:00